Location: Unspecified
(0.0000°N, 0.0000°E)
Time: 12:42:00
(UTC+00:00)

deb r/b Ablestar - Visible Passes

Search period start: 20 July 2025 00:00
Search period end: 30 July 2025 00:00
Orbit: 862 x 962 km, 66.7° (Epoch: 19 July)

Date Brightness Start Highest point End Pass type
(mag) Time Alt. Az. Time Alt. Az. Time Alt. Az.
20 Jul ? 19:49:27 10° NNE 19:52:45 23° NE 19:52:45 23° NE visible
20 Jul ? 21:35:16 10° NW 21:36:06 13° WNW 21:36:06 13° WNW visible
21 Jul ? 19:54:53 10° N 19:59:32 38° NE 19:59:32 38° NE visible
21 Jul ? 21:42:44 10° WNW 21:42:52 10° WNW 21:42:52 10° WNW visible
22 Jul ? 20:00:40 10° N 20:06:22 65° NE 20:06:22 65° NE visible
23 Jul ? 20:06:46 10° NNW 20:12:53 79° WSW 20:13:19 75° SSW visible
24 Jul ? 18:30:15 10° NE 18:33:11 14° ENE 18:36:09 10° E visible
24 Jul ? 20:13:08 10° NW 20:19:03 50° WSW 20:20:21 43° SW visible
25 Jul ? 18:34:42 10° NNE 18:39:21 22° ENE 18:44:05 10° ESE visible
25 Jul ? 20:19:51 10° NW 20:25:13 31° WSW 20:27:28 25° SW visible
26 Jul ? 18:39:57 10° N 18:45:30 36° ENE 18:51:09 10° SE visible
26 Jul ? 20:27:04 10° WNW 20:31:25 20° WSW 20:34:40 14° SSW visible
27 Jul ? 18:45:39 10° N 18:51:39 57° ENE 18:57:48 10° SSE visible
27 Jul ? 20:35:27 10° W 20:37:38 12° WSW 20:39:49 10° SW visible
28 Jul ? 18:51:38 10° NNW 18:57:48 89° E 19:04:07 10° SSE visible
29 Jul ? 18:57:55 10° NNW 19:03:57 58° WSW 19:10:08 10° S visible
